Other Public Products
Issued by NWS Grand Forks, ND

Home | Current Version | Previous Version | Text Only | Print | Product List | Glossary On
Versions: 1 2 3 4 5 6 7 8 9 10 11 12 13 14 15 16 17 18 19 20 21 22 23 24 25 26 27 28 29 30 31 32 33 34 35 36 37 38 39 40 41 42 43 44 45 46 47 48 49 50
000
FPUS83 KFGF 241731
OPUFGF
PRAIRIE TO PINES WEATHER ROUNDUP
NATIONAL WEATHER SERVICE EASTERN NORTH DAKOTA/GRAND FORKS ND
1200 PM CDT THU APR 24 2014

 **SATELLITE DATA USED TO AUGMENT SKY COVER AT AUTOMATED STATIONS**
 *****  WEATHER ACROSS EASTERN NORTH DAKOTA  *****

CITY           SKY/WX    TMP DP  RH WIND       PRES   REMARKS
GRAND FORKS    CLOUDY    42  40  92 SE13      29.72F
GRAND FORKS AF CLOUDY    42  42 100 S9        29.75S
GRAND CITY NWS   N/A     41 N/A N/A SE7         N/A
BUXTON           N/A     41  41  99 SE9         N/A
DEVILS LAKE    CLOUDY    43  37  81 S5        29.70F
FARGO          LGT RAIN  42  40  92 S6        29.74F FOG
WAHPETON ARPT  CLOUDY    41  37  87 E14       29.70F
$$

 *****  WEATHER ACROSS CENTRAL AND WESTERN NORTH DAKOTA  *****

CITY           SKY/WX    TMP DP  RH WIND       PRES   REMARKS
JAMESTOWN      MOSUNNY   54  42  64 NW10      29.70S
BISMARCK       SUNNY     60  25  26 NW12G23   29.74F
MINOT          MOSUNNY   53  32  44 SW17      29.68F
MINOT AFB      MOSUNNY   51  36  57 W14       29.68R
GARRISON         N/A     54  32  43 W17G28    29.71S
WILLISTON      PTSUNNY   54  36  50 NW16      29.74R
DICKINSON      SUNNY     56  21  25 W23G35    29.74S
HETTINGER      SUNNY     55  20  25 W21G35    29.79S
$$

 *****  OTHER OBSERVATIONS NORTHEAST NORTH DAKOTA  *****

CITY           SKY/WX    TMP DP  RH WIND       PRES   REMARKS
WALHALLA         N/A     39  39 100 SE8       29.75S FOG
LANGDON        CLOUDY    41  39  93 S8        29.71F FOG
CAVALIER       CLOUDY    39  39 100 SE8G17    29.74F FOG
GRAFTON        CLOUDY    41  41 100 SE13      29.74F FOG
CANDO          CLOUDY    41  39  93 SE5       29.71S
FORT TOTTEN      N/A     47  43  86 S5        29.95
ROLLA          CLOUDY    39  39 100 S7        29.70S FOG
RUGBY          FAIR      48  39  71 W7        29.68F
 ***** THE ABOVE OBSERVATIONS ARE NON NWS ARE NOT QUALITY
        CONTROLLED AND MAY MIS-REPORT RAIN FOR SNOW...
$$

 *****  OTHER OBSERVATIONS SOUTHEAST NORTH DAKOTA *****

CITY           SKY/WX    TMP DP  RH WIND       PRES   REMARKS
COOPERSTOWN    CLOUDY    41  41 100 S7        29.72S FOG
VALLEY CITY    CLOUDY    45  45 100 SW5       29.71F
OAKES          PTSUNNY   52  46  82 NW5       29.71F
GWINNER        PTSUNNY   48  48 100 SW7       29.73F
SHEYENNE NWR     N/A     41  41 100 S3        29.95
BUFFALO          N/A     42  40  92 S5          N/A
WYNDMERE       NOT AVBL
 ***** THE ABOVE OBSERVATIONS ARE NON NWS ARE NOT QUALITY
       CONTROLLED AND MAY MIS-REPORT RAIN FOR SNOW...
$$

  *****  WEATHER ACROSS NORTHERN MINNESOTA  *****

CITY           SKY/WX    TMP DP  RH WIND       PRES   REMARKS
FLAG ISLAND    LGT RAIN  37  36  93 E12       29.82F
WARROAD        MIX PCPN  39  36  87 SE7       29.81F
ROSEAU         RAIN      39  34  81 SE6       29.80F
HALLOCK        LGT RAIN  41  37  87 SE10      29.76S
THF RVR FALLS  CLOUDY    37  34  87 SE12      29.78F
HALSTAD          N/A     42  41  96 SE6         N/A
FOSSTON        RAIN      37  37 100 SE6       29.77F
BAUDETTE       LGT RAIN  39  37  92 SE9       29.82F FOG
WASKISH        DRIZZLE   37  37 100 E8        29.81F
CROOKSTON      MIX PCPN  39  39 100 SE10      29.76F
$$
  *****  WEATHER ACROSS CENTRAL AND WEST MINNESOTA  *****

CITY           SKY/WX    TMP DP  RH WIND       PRES   REMARKS
BEMIDJI        LGT RAIN  37  37  98 E7        29.77F
PARK RAPIDS    LGT RAIN  38  37  97 SE8       29.76F FOG
WADENA         LGT RAIN  39  36  87 SE7       29.75F
DETROIT LAKES  LGT RAIN  37  36  93 SE7       29.76F
MOORHEAD       LGT RAIN  43  43 100 SE10      29.73F
FERGUS FALLS   LGT RAIN  39  37  93 SE10      29.72F
ELBOW LAKE     LGT RAIN  40  39  97 E8        29.73F
MORRIS MN      RAIN      43  41  93 E10       29.72F
STAPLES        LGT RAIN  37  37 100 SE3       29.76F
WHEATON        CLOUDY    45  43  93 E17       29.71F FOG
$$
  *****  WEATHER ELSEWHERE ACROSS MINNESOTA  *****

CITY           SKY/WX    TMP DP  RH WIND       PRES   REMARKS
DULUTH         SNOW      33  31  92 E17       29.85F VSB 1/2 WCI  22
INTRNTL FALLS  LGT RAIN  39  36  89 SE17G25   29.85F
ELY            CLOUDY    37  34  87 SE15G24   29.89F
CLOQUET        LGT SNOW  34  34 100 E10       29.82F
BRAINERD       LGT RAIN  42  36  79 VRB6      29.77F
HIBBING        LGT RAIN  38  34  85 E12       29.84F
ALEXANDRIA     LGT RAIN  39  37  93 CALM      29.75S FOG
SAINT CLOUD    LGT RAIN  41  38  89 E8        29.75F
MINNEAPOLIS    RAIN      41  41 100 E9        29.73F FOG
$$

  *****  WEATHER ACROSS SOUTH DAKOTA  *****

CITY           SKY/WX    TMP DP  RH WIND       PRES   REMARKS
SIOUX FALLS    PTSUNNY   53  46  77 N13       29.73R
BROOKINGS      NOT AVBL
WATERTOWN      CLOUDY    46  43  89 N5        29.71F
HURON          SUNNY     63  35  35 NW13G21   29.73F
SISSETON         N/A     43  42  97 CALM      29.71F
ABERDEEN       MOSUNNY   56  38  50 NW13      29.73S
MITCHELL       SUNNY     63  34  33 N18G26    29.74F
PIERRE         SUNNY     61  27  27 NW22G29   29.79S
MOBRIDGE       PTSUNNY   60  25  26 NW20G26   29.74S
RAPID CITY     SUNNY     56  24  29 N8G21     29.85S
$$

  *****  SOME WEATHER IN NEARBY STATES *****

CITY           SKY/WX    TMP DP  RH WIND       PRES   REMARKS
GLASGOW MT     SUNNY     53  30  41 W14       29.77S
GREAT FALLS MT CLOUDY    48  31  51 SW9       29.77S
CHEYENNE WY    SUNNY     49  15  25 W21G29    29.99F
SCOTTSBLUFF NE SUNNY     58  16  19 W18       29.94F
OMAHA NE       CLOUDY    55  49  80 N18G26    29.71R
DES MOINES IA  CLOUDY    57  53  86 W5        29.66F
DAVENPORT IA   CLOUDY    62  39  42 S28G37    29.74F
CHICAGO IL     CLOUDY    60  35  39 SE25G32   29.90F
EAU CLAIRE WI  LGT RAIN  42  40  92 SE13      29.76F
LA CROSSE WI   LGT RAIN  43  40  89 SE12G20   29.76F FOG
$$

  *****  SOME NATIONAL WEATHER *****

CITY           SKY/WX    TMP DP  RH WIND       PRES   REMARKS
LA GUARDIA NY  MOSUNNY   55  13  18 NW26G32   29.88F
RALEIGH NC     MOSUNNY   65  35  33 VRB5      30.11F
ATLANTA GA     MOSUNNY   73  43  33 E7        30.03F
NEW ORLEANS LA MOSUNNY   80  66  62 S13       29.98F
OKLAHOMA CITY  MOSUNNY   70  46  42 N26G39    29.78S
ALBUQUERQUE NM PTSUNNY   57  10  15 VRB3      30.17R
SALT LAKE CITY PTSUNNY   56  21  25 S20       30.05F
LOS ANGELES CA MOSUNNY   68  48  48 CALM      30.00S
BOISE ID       CLOUDY    51  41  68 SE14      29.94S
SEATTLE WA     PTSUNNY   53  45  74 S15G24    29.76
$$

*** WEATHER ACROSS MANITOBA...SASKATCHEWAN AND ONTARIO ***
                ***ONTARIO***

CITY           SKY/WX    TMP DP  RH WIND       PRES   REMARKS
GERALDTON      CLOUDY    50  23  34 SE9       30.07F
THUNDER BAY    CLOUDY    41  30  65 E15       30.05F
SIOUX LOOKOUT  CLOUDY    45  27  49 SE13G22   29.97F
TORONTO        MOSUNNY   50  19  29 N5G20     30.13F
BIG TROUT LK   MOSUNNY   34  23  64 E10G22    30.18S
PICKLE LAKE    PTSUNNY   52  21  30 SE10      30.00F
DRYDEN         CLOUDY    41  30  65 E10G20    29.91F
KENORA         LGT RAIN  37  36  93 SE13      29.86S
$$
                *** MANITOBA***

CITY           SKY/WX    TMP DP  RH WIND       PRES   REMARKS
BRANDON        CLOUDY    41  41 100 CALM      29.72S FOG
DAUPHIN        LGT RAIN  39  37  93 SE12      29.73S
ISLAND LAKE    PTSUNNY   37  28  70 E12G18    30.07F
PILOT MOUND      N/A     41  41 100 S9          N/A
THE PAS        CLOUDY    30  25  80 E18G24    29.90F WCI  18
THOMPSON       PTSUNNY   25  18  74 E20G28    30.19S WCI  11
WINNIPEG       LGT RAIN  41  37  87 SE13G20   29.78S
LYNN LAKE      SUNNY     25  16  68 E16G28    30.14F WCI  12
CHURCHILL      FLURRIES  18  12  79 E7        30.45F WCI   8
GILLAM         MOSUNNY   25  14  63 E17       30.30F WCI  11
$$
                ***SASKATCHEWAN***

CITY           SKY/WX    TMP DP  RH WIND       PRES   REMARKS
ESTEVAN        PTSUNNY   50  41  71 NW9       29.71R
KINDERSLEY     CLOUDY    41  32  70 W17G23    29.66R
LLOYDMINSTER   LGT RAIN  36  34  93 E8        29.67R FOG
PRINCE ALBERT  LGT SNOW  32  30  93 E20G33    29.69R WCI  20
REGINA         PTSUNNY   41  36  81 NW14      29.68R



USA.gov is the U.S. government's official web portal to all federal, state and local government web resources and services.